Decatur, AL

9:47 PM CST on December 12, 2017 (GMT -0600)
Pryor Regional

Weather History for KDCU - April, 2014

Change the Weather History Date:

Tuesday, April 8, 2014

  Actual Average Record
Temperature  
Mean Temperature 52 °F -  
Max Temperature 64 °F 70 °F 85 °F (1978)
Min Temperature 39 °F 45 °F 23 °F (2007)
Degree Days  
Heating Degree Days 14    
Growing Degree Days 2 (Base 50)    
Moisture  
Dew Point 42 °F    
Average Humidity 72    
Maximum Humidity 100    
Minimum Humidity 37    
Precipitation  
Precipitation 0.01 in - - ()
Sea Level Pressure  
Sea Level Pressure 29.84 in    
Wind  
Wind Speed 6 mph (WNW)    
Max Wind Speed 10 mph    
Max Gust Speed 21 mph    
Visibility 9 miles    
Events      
Averages and records for this station are not official NWS values.
T = Trace of Precipitation, MM = Missing Value Source: NWS Daily Summary

Daily Weather History Graph

Daily Weather History Graph

Search for Another Location

Airport or City:

Trip Planner

Search our weather history database for the weather conditions in past years. The results will help you decide how hot, cold, wet, or windy it might be!

Date:

Astronomy

Apr. 08, 2014 Rise Set
Actual Time 6:25 AM CDT 7:14 PM CDT
Civil Twilight 5:59 AM CDT 7:40 PM CDT
Nautical Twilight 5:29 AM CDT 8:10 PM CDT
Astronomical Twilight 4:58 AM CDT 8:41 PM CDT
Moon 1:21 PM CDT (4/8) 2:23 AM CDT (4/8)
Length of Visible Light 13h 40m
Length of Day
12h 49m
Waxing Gibbous, 63% of the Moon is Illuminated
Apr 8
Waxing Gibbous
Apr 15
Full
Apr 22
Last Quarter
Apr 29
New
May 6
First Quarter

Hourly Weather History & Observations

Time (CDT) Temp. Windchill Dew Point Humidity Pressure Visibility Wind Dir Wind Speed Gust Speed Precip Events Conditions
12:53 AM 46.9 °F - 42.1 °F 83% 29.86 in 10.0 mi WNW 8.1 mph - N/A   Scattered Clouds
1:14 AM 46.4 °F 42.4 °F 41.0 °F 81% 29.86 in 10.0 mi NW 8.1 mph - N/A   Mostly Cloudy
1:53 AM 46.9 °F - 42.1 °F 83% 29.85 in 10.0 mi NW 5.8 mph - N/A   Overcast
2:19 AM 46.4 °F 42.9 °F 41.0 °F 81% 29.85 in 10.0 mi WNW 6.9 mph - N/A   Overcast
2:53 AM 46.0 °F 43.1 °F 39.9 °F 79% 29.84 in 10.0 mi NW 5.8 mph - N/A   Clear
3:53 AM 44.1 °F 42.5 °F 41.0 °F 89% 29.83 in 10.0 mi NW 3.5 mph - N/A   Clear
4:53 AM 41.0 °F - 39.0 °F 93% 29.82 in 8.0 mi Calm Calm - N/A   Clear
5:53 AM 39.9 °F - 39.0 °F 97% 29.84 in 7.0 mi Calm Calm - N/A   Clear
6:53 AM 41.0 °F - 41.0 °F 100% 29.85 in 4.0 mi Calm Calm - N/A   Clear
7:53 AM 46.0 °F - 44.1 °F 93% 29.86 in 5.0 mi Calm Calm - N/A   Clear
8:53 AM 50.0 °F - 44.1 °F 80% 29.87 in 9.0 mi NW 6.9 mph - N/A   Clear
9:53 AM 54.0 °F - 42.1 °F 64% 29.87 in 10.0 mi Calm Calm - N/A   Scattered Clouds
10:53 AM 55.9 °F - 41.0 °F 57% 29.87 in 10.0 mi SSW 4.6 mph - N/A   Mostly Cloudy
11:53 AM 57.9 °F - 42.1 °F 56% 29.85 in 10.0 mi WNW 5.8 mph - N/A   Scattered Clouds
12:53 PM 61.0 °F - 43.0 °F 52% 29.82 in 10.0 mi West 8.1 mph - N/A   Clear
1:53 PM 64.0 °F - 39.9 °F 41% 29.79 in 10.0 mi Variable 5.8 mph - N/A   Clear
2:53 PM 63.0 °F - 39.0 °F 41% 29.76 in 10.0 mi Variable 4.6 mph - N/A   Clear
3:53 PM 63.0 °F - 36.0 °F 37% 29.75 in 10.0 mi Calm Calm - N/A   Scattered Clouds
4:53 PM 61.0 °F - 39.9 °F 46% 29.77 in 10.0 mi NNW 10.4 mph 17.3 mph N/A   Mostly Cloudy
5:53 PM 59.0 °F - 43.0 °F 55% 29.78 in 10.0 mi WNW 8.1 mph - N/A   Overcast
6:53 PM 57.0 °F - 44.1 °F 62% 29.83 in 10.0 mi West 6.9 mph - N/A   Overcast
7:53 PM 54.0 °F - 46.0 °F 75% 29.85 in 10.0 mi West 10.4 mph 20.7 mph 0.01 in   Overcast
8:53 PM 52.0 °F - 46.9 °F 83% 29.88 in 10.0 mi WNW 9.2 mph - N/A   Overcast
9:53 PM 51.1 °F - 46.9 °F 86% 29.90 in 10.0 mi WNW 4.6 mph - 0.00 in   Overcast
10:53 PM 51.1 °F - 46.9 °F 86% 29.92 in 10.0 mi NW 5.8 mph - N/A   Overcast
11:53 PM 51.1 °F - 46.0 °F 83% 29.93 in 10.0 mi NW 5.8 mph - N/A   Overcast